TOM7321 EGBB-LIPZ

Flight info

Callsign TOM7321
Flight time N/A
Altitude 35000
Route ADMEX Y321 EMKUK UL612 VEULE DCT TEPRI UN491 POGZI DCT GELTA DCT LUVAL DCT SHARA DCT DEVDI DCT RIPUS DCT RESIA DCT ADOSA/N0398F190 L612 ALBET
Aircraft A320/M-SDE3FGHIRWY/LB1

Departure

Time 2026-04-27 16:46
Airport Birmingham Airport (EGBB)

Arrival

Time N/A
Airport Venice Marco Polo Airport (LIPZ)
Time Latitude Longitude Altitude Speed Heading
2026-04-27 16:36 52.45207 -1.73723 322 ft 0 kts 326°
2026-04-27 16:42 52.45192 -1.73706 323 ft 4 kts 321°
2026-04-27 16:42 52.45172 -1.73676 322 ft 4 kts 309°
2026-04-27 16:42 52.45157 -1.73640 323 ft 4 kts 291°
2026-04-27 16:43 52.45153 -1.73600 322 ft 4 kts 252°
2026-04-27 16:43 52.45158 -1.73581 322 ft 1 kts 236°
2026-04-27 16:43 52.45159 -1.73579 322 ft 0 kts 236°
2026-04-27 16:44 52.45122 -1.73668 323 ft 25 kts 236°
2026-04-27 16:45 52.45011 -1.73869 323 ft 11 kts 201°
2026-04-27 16:45 52.44949 -1.73801 322 ft 21 kts 140°
2026-04-27 16:45 52.44773 -1.73701 322 ft 30 kts 191°
2026-04-27 16:45 52.44651 -1.73941 326 ft 23 kts 258°
2026-04-27 16:46 52.44764 -1.74119 324 ft 38 kts 328°
2026-04-27 16:46 52.45180 -1.74568 330 ft 106 kts 325°
2026-04-27 16:46 52.45947 -1.75417 588 ft 134 kts 327°
2026-04-27 16:46 52.46641 -1.76222 1471 ft 120 kts 324°
2026-04-27 16:47 52.47360 -1.77157 1851 ft 146 kts 321°
2026-04-27 16:47 52.48185 -1.78378 2134 ft 174 kts 323°
2026-04-27 16:47 52.49241 -1.79581 2377 ft 196 kts 328°
2026-04-27 16:47 52.50551 -1.80477 2779 ft 212 kts 354°
2026-04-27 16:48 52.52020 -1.80146 3512 ft 218 kts 21°
2026-04-27 16:48 52.53235 -1.78620 4284 ft 227 kts 52°
2026-04-27 16:48 52.53688 -1.77058 4797 ft 233 kts 73°
2026-04-27 16:49 52.53573 -1.71670 6334 ft 244 kts 101°
2026-04-27 16:49 52.53187 -1.68940 7080 ft 246 kts 104°
2026-04-27 16:49 52.52426 -1.66376 7628 ft 261 kts 127°
2026-04-27 16:49 52.51108 -1.64129 7952 ft 283 kts 134°
2026-04-27 16:50 52.49669 -1.61818 8541 ft 293 kts 135°
2026-04-27 16:50 52.48193 -1.59459 9241 ft 299 kts 135°
2026-04-27 16:50 52.46692 -1.57054 9991 ft 304 kts 136°
2026-04-27 16:50 52.44981 -1.54976 10528 ft 315 kts 149°
2026-04-27 16:51 52.43041 -1.53042 10685 ft 338 kts 149°
2026-04-27 16:51 52.40958 -1.51006 10809 ft 360 kts 150°
2026-04-27 16:51 52.38744 -1.48845 10954 ft 380 kts 149°
2026-04-27 16:51 52.36382 -1.46800 11454 ft 386 kts 159°
2026-04-27 16:52 52.33839 -1.45592 12032 ft 388 kts 171°
2026-04-27 16:52 52.31160 -1.44828 12592 ft 393 kts 172°
2026-04-27 16:52 52.28457 -1.44061 13162 ft 397 kts 172°
2026-04-27 16:52 52.25713 -1.43288 13710 ft 402 kts 173°
2026-04-27 16:53 52.22939 -1.42512 14263 ft 407 kts 173°
2026-04-27 16:53 52.20136 -1.41725 14784 ft 410 kts 173°
2026-04-27 16:53 52.17311 -1.40929 15350 ft 413 kts 173°
2026-04-27 16:53 52.14479 -1.40129 15918 ft 415 kts 173°
2026-04-27 16:54 52.11620 -1.39322 16486 ft 418 kts 174°
2026-04-27 16:54 52.08750 -1.38513 17054 ft 420 kts 174°
2026-04-27 16:54 52.05859 -1.37703 17625 ft 423 kts 174°
2026-04-27 16:54 52.02950 -1.36887 18177 ft 425 kts 175°
2026-04-27 16:55 52.00030 -1.36059 18779 ft 427 kts 174°
2026-04-27 16:55 51.97136 -1.34769 19257 ft 436 kts 163°
2026-04-27 16:55 51.94342 -1.32718 19681 ft 444 kts 157°
2026-04-27 16:55 51.91565 -1.30463 20099 ft 449 kts 156°
2026-04-27 16:56 51.88761 -1.28194 20511 ft 453 kts 156°
2026-04-27 16:56 51.85965 -1.25940 20899 ft 457 kts 156°
2026-04-27 16:56 51.83099 -1.23638 21271 ft 461 kts 156°
2026-04-27 16:56 51.80208 -1.21330 21583 ft 465 kts 156°
2026-04-27 16:57 51.77291 -1.19004 21986 ft 468 kts 156°
2026-04-27 16:57 51.74360 -1.16666 22370 ft 471 kts 156°
2026-04-27 16:57 51.71416 -1.14313 22729 ft 474 kts 156°
2026-04-27 16:57 51.68451 -1.11944 23061 ft 478 kts 156°
2026-04-27 16:58 51.65456 -1.09561 23388 ft 481 kts 156°
2026-04-27 16:58 51.62452 -1.07138 23709 ft 485 kts 153°
2026-04-27 16:58 51.59592 -1.04212 23992 ft 490 kts 145°
2026-04-27 16:58 51.56808 -1.01013 24246 ft 492 kts 145°
2026-04-27 16:59 51.54024 -0.97823 24617 ft 492 kts 145°
2026-04-27 16:59 51.51237 -0.94641 24980 ft 492 kts 146°
2026-04-27 16:59 51.48440 -0.91461 25349 ft 492 kts 146°
2026-04-27 16:59 51.45577 -0.88451 25654 ft 492 kts 152°
2026-04-27 17:00 51.40414 -0.84751 26307 ft 489 kts 161°
2026-04-27 17:00 51.36186 -0.82053 26826 ft 489 kts 160°
2026-04-27 17:00 51.33029 -0.80035 27184 ft 489 kts 160°
2026-04-27 17:01 51.29862 -0.78013 27627 ft 488 kts 160°
2026-04-27 17:01 51.26759 -0.76032 28067 ft 487 kts 160°
2026-04-27 17:01 51.23614 -0.74030 28478 ft 487 kts 160°
2026-04-27 17:01 51.20463 -0.72031 28876 ft 487 kts 160°
2026-04-27 17:02 51.17308 -0.70034 29269 ft 488 kts 160°
2026-04-27 17:02 51.14147 -0.68031 29668 ft 488 kts 160°
2026-04-27 17:02 51.10990 -0.66034 30065 ft 489 kts 160°
2026-04-27 17:02 51.07830 -0.64038 30432 ft 489 kts 159°
2026-04-27 17:03 51.04764 -0.61696 30802 ft 489 kts 150°
2026-04-27 17:03 51.01908 -0.58764 31234 ft 487 kts 146°
2026-04-27 17:03 50.99113 -0.55757 31709 ft 484 kts 146°
2026-04-27 17:03 50.96334 -0.52784 32202 ft 480 kts 146°
2026-04-27 17:04 50.93564 -0.49837 32704 ft 477 kts 147°
2026-04-27 17:04 50.90824 -0.46932 33211 ft 473 kts 147°
2026-04-27 17:04 50.88092 -0.44045 33724 ft 470 kts 147°
2026-04-27 17:04 50.85392 -0.41197 34284 ft 463 kts 148°
2026-04-27 17:05 50.82727 -0.38385 34793 ft 458 kts 148°
2026-04-27 17:05 50.80083 -0.35591 35121 ft 457 kts 148°
2026-04-27 17:05 50.77436 -0.32792 35228 ft 458 kts 148°
2026-04-27 17:06 50.72054 -0.27110 35244 ft 471 kts 148°
2026-04-27 17:06 50.66576 -0.21353 35253 ft 475 kts 148°
2026-04-27 17:07 50.61087 -0.15607 35239 ft 472 kts 148°
2026-04-27 17:07 50.55628 -0.09906 35242 ft 470 kts 148°
2026-04-27 17:08 50.50214 -0.04259 35252 ft 470 kts 148°
2026-04-27 17:08 50.44753 0.01409 35268 ft 471 kts 149°
2026-04-27 17:09 50.39285 0.07061 35253 ft 470 kts 149°
2026-04-27 17:09 50.33790 0.12741 35263 ft 470 kts 149°
2026-04-27 17:10 50.28339 0.18369 35262 ft 469 kts 149°
2026-04-27 17:10 50.22919 0.23938 35259 ft 469 kts 149°
2026-04-27 17:11 50.17461 0.29529 35247 ft 469 kts 149°
2026-04-27 17:11 50.09303 0.37911 35255 ft 468 kts 149°
2026-04-27 17:12 50.01148 0.46264 35265 ft 467 kts 150°
2026-04-27 17:13 49.95712 0.51809 35239 ft 467 kts 150°
2026-04-27 17:13 49.90275 0.57335 35251 ft 467 kts 150°
2026-04-27 17:14 49.85016 0.63261 35255 ft 471 kts 139°
2026-04-27 17:14 49.80565 0.70683 35255 ft 473 kts 135°
2026-04-27 17:15 49.76127 0.78198 35243 ft 473 kts 135°
2026-04-27 17:15 49.71684 0.85694 35234 ft 472 kts 135°
2026-04-27 17:16 49.67245 0.93159 35237 ft 472 kts 136°
2026-04-27 17:16 49.62794 1.00641 35217 ft 473 kts 136°
2026-04-27 17:17 49.58339 1.08109 35204 ft 473 kts 136°
2026-04-27 17:17 49.53877 1.15565 35203 ft 474 kts 136°
2026-04-27 17:18 49.47161 1.26733 35205 ft 473 kts 136°
2026-04-27 17:18 49.42678 1.34148 35215 ft 473 kts 136°
2026-04-27 17:19 49.38202 1.41551 35213 ft 473 kts 137°
2026-04-27 17:19 49.33716 1.48948 35207 ft 474 kts 137°
2026-04-27 17:20 49.29221 1.56338 35195 ft 473 kts 137°
2026-04-27 17:20 49.24751 1.63656 35191 ft 473 kts 137°